This demonstration page uses our WeatherBlox Daily Observations layout. Learn more.

Left ArrowRight Arrow

36.17497, -115.13722

Hourly Observations for September 2, 2017

Temp ( °F °C ) Dew Point ( °F °C ) Humidity (%) Winds ( mph kmh ) Pressure ( in mb ) Visibility ( mi km ) Precip ( " mm )
12:53 am 00:53 Clear 88 31.1 42 5.6 20 20 SW 3 6 29.85 1011 10 16 0.00 0.00
1:53 am 01:53 Clear 88 31.1 40 4.4 18 18 NNW 6 9 29.85 1011 10 16 0.00 0.00
2:53 am 02:53 Clear 89 31.7 40 4.4 18 18 NNW 8 13 29.84 1011 8 13 0.00 0.00
3:53 am 03:53 Clear 89 31.7 39 3.9 17 17 NNW 13 20 29.85 1011 10 16 0.00 0.00
4:53 am 04:53 Clear 88 31.1 39 3.9 18 18 NNW 13 20 29.85 1011 10 16 0.00 0.00
5:53 am 05:53 Clear 87 30.6 38 3.3 18 18 N 10 17 29.87 1012 10 16 0.00 0.00
6:53 am 06:53 Sunny 84 28.9 41 5 22 22 Calm 29.91 1013 10 16 0.00 0.00
7:53 am 07:53 Sunny 89 31.7 39 3.9 17 17 WNW 8 13 29.92 1013 10 16 0.00 0.00
8:53 am 08:53 Sunny 93 33.9 38 3.3 14 14 Calm 29.93 1014 10 16 0.00 0.00
9:53 am 09:53 Sunny 97 36.1 35 1.7 11 11 N 7 11 29.94 1014 10 16 0.00 0.00
10:53 am 10:53 Sunny 99 37.2 34 1.1 10 10 VRB 3 6 29.94 1014 10 16 0.00 0.00
11:53 am 11:53 Sunny 102 38.9 34 1.1 9 9 undefined N/A 29.93 1014 10 16 0.00 0.00
12:53 pm 12:53 Sunny 102 38.9 34 1.1 9 9 VRB 6 9 29.92 1013 10 16 0.00 0.00
1:53 pm 13:53 Sunny 104 40 34 1.1 9 9 SE 13 20 29.91 1013 10 16 0.00 0.00
2:53 pm 14:53 Sunny 104 40 34 1.1 9 9 undefined N/A 29.88 1012 10 16 0.00 0.00
3:53 pm 15:53 Sunny 105 40.6 35 1.7 9 9 SSE 12 19 29.86 1011 10 16 0.00 0.00
4:53 pm 16:53 Sunny 105 40.6 37 2.8 10 10 SE 13 20 29.85 1011 10 16 0.00 0.00
5:53 pm 17:53 Sunny 103 39.4 36 2.2 10 10 SE 7 11 29.85 1011 10 16 0.00 0.00
6:53 pm 18:53 Sunny 102 38.9 37 2.8 10 10 S 5 7 29.85 1011 10 16 0.00 0.00
7:53 pm 19:53 Clear 100 37.8 39 3.9 12 12 S 6 9 29.88 1012 10 16 0.00 0.00
8:53 pm 20:53 Clear 96 35.6 52 11.1 23 23 S 21 33 29.93 1013 10 16 0.00 0.00
9:53 pm 21:53 Clear 89 31.7 49 9.4 25 25 SSW 21 33 29.98 1015 10 16 0.00 0.00
10:53 pm 22:53 Clear 90 32.2 49 9.4 24 24 VRB 5 7 29.98 1015 10 16 0.00 0.00
11:53 pm 23:53 Clear 89 31.7 49 9.4 25 25 ENE 7 11 29.97 1015 10 16 0.00 0.00

Powered by AerisWeather